Pocatello, ID

10:58 PM MDT on May 25, 2017 (GMT -0600)
Pocatello Regional

Weather History for KPIH - January, 2014

Change the Weather History Date:

Saturday, January 4, 2014

  Actual Average Record
Temperature  
Mean Temperature 25 °F 24 °F  
Max Temperature 32 °F 32 °F 51 °F (1994)
Min Temperature 17 °F 16 °F -22 °F (1942)
Degree Days  
Heating Degree Days 40 41  
Month to date heating degree days 142 164  
Since 1 July heating degree days 3142 3149  
Cooling Degree Days 0 0  
Month to date cooling degree days 0 0  
Year to date cooling degree days 0 0  
Moisture  
Dew Point 14 °F    
Average Humidity 64    
Maximum Humidity 84    
Minimum Humidity 43    
Precipitation  
Precipitation 0.00 in 0.04 in 0.37 in (1982)
Month to date precipitation 0.00 0.15  
Year to date precipitation 0.00 0.15  
Snow  
Snow 0.00 in - - ()
Month to date snowfall 0.0  
Since 1 July snowfall 9.6  
Snow Depth 0.00 in    
Sea Level Pressure  
Sea Level Pressure 30.17 in    
Wind  
Wind Speed 14 mph (SW)    
Max Wind Speed 24 mph    
Max Gust Speed 30 mph    
Visibility 10 miles    
Events      
T = Trace of Precipitation, MM = Missing Value Source: NWS Daily Summary

Daily Weather History Graph

Daily Weather History Graph

Search for Another Location

Airport or City:

Trip Planner

Search our weather history database for the weather conditions in past years. The results will help you decide how hot, cold, wet, or windy it might be!

Date:

Astronomy

Jan. 04, 2014 Rise Set
Actual Time 8:01 AM MST 5:09 PM MST
Civil Twilight 7:29 AM MST 5:41 PM MST
Nautical Twilight 6:53 AM MST 6:17 PM MST
Astronomical Twilight 6:19 AM MST 6:51 PM MST
Moon 10:03 AM MST (1/4) 9:40 PM MST (1/4)
Length of Visible Light 10h 12m
Length of Day
9h 08m
Waxing Crescent, 16% of the Moon is Illuminated
Jan 4
Waxing Crescent
Jan 7
First Quarter
Jan 15
Full
Jan 23
Last Quarter
Jan 30
New

Hourly Weather History & Observations

Time (MST) Temp. Windchill Dew Point Humidity Pressure Visibility Wind Dir Wind Speed Gust Speed Precip Events Conditions
12:53 AM 27.0 °F 20.5 °F 17.1 °F 66% 29.96 in 10.0 mi SW 5.8 mph - N/A   Overcast
1:53 AM 27.0 °F - 18.0 °F 69% 29.97 in 10.0 mi Calm Calm - N/A   Overcast
2:53 AM 27.0 °F 23.0 °F 18.0 °F 69% 30.01 in 10.0 mi SE 3.5 mph - N/A   Overcast
3:53 AM 26.1 °F 20.5 °F 17.1 °F 69% 30.03 in 10.0 mi WNW 4.6 mph - N/A   Overcast
4:53 AM 24.1 °F 13.1 °F 19.0 °F 81% 30.08 in 10.0 mi WSW 11.5 mph - N/A   Overcast
5:53 AM 21.0 °F 7.6 °F 18.0 °F 88% 30.13 in 10.0 mi WSW 15.0 mph - N/A   Overcast
6:53 AM 19.9 °F 6.2 °F 16.0 °F 85% 30.16 in 10.0 mi SW 15.0 mph - N/A   Mostly Cloudy
7:53 AM 19.9 °F 5.7 °F 14.0 °F 78% 30.19 in 10.0 mi SW 16.1 mph - N/A   Mostly Cloudy
8:53 AM 19.0 °F 4.0 °F 12.9 °F 77% 30.21 in 10.0 mi SW 17.3 mph - N/A   Scattered Clouds
9:53 AM 23.0 °F 8.3 °F 14.0 °F 68% 30.24 in 10.0 mi SW 19.6 mph - N/A   Scattered Clouds
10:53 AM 26.1 °F 12.3 °F 14.0 °F 60% 30.26 in 10.0 mi SW 19.6 mph - N/A   Partly Cloudy
11:53 AM 28.0 °F 15.3 °F 12.9 °F 53% 30.24 in 10.0 mi WSW 18.4 mph - N/A   Scattered Clouds
12:53 PM 30.9 °F 18.7 °F 10.9 °F 43% 30.20 in 10.0 mi WSW 19.6 mph - N/A   Partly Cloudy
1:53 PM 30.9 °F 18.7 °F 10.9 °F 43% 30.19 in 10.0 mi WSW 19.6 mph - N/A   Scattered Clouds
4:53 PM 28.0 °F 17.0 °F 14.0 °F 56% 30.23 in 10.0 mi WSW 13.8 mph - N/A   Scattered Clouds
5:53 PM 26.6 °F 14.3 °F 14.0 °F 59% 30.13 in 10.0 mi SSW 16.1 mph 21.9 mph N/A   Scattered Clouds
6:53 PM 24.8 °F 10.7 °F 12.2 °F 59% 30.14 in 10.0 mi SW 19.6 mph - N/A   Clear
7:53 PM 21.2 °F 5.2 °F 12.2 °F 68% 30.15 in 10.0 mi SW 21.9 mph - N/A   Clear
8:53 PM 21.0 °F 6.2 °F 12.0 °F 68% 30.31 in 10.0 mi WSW 18.4 mph - N/A   Mostly Cloudy
9:53 PM 19.4 °F 6.0 °F 10.4 °F 68% 30.20 in 10.0 mi SW 13.8 mph - N/A   Clear
10:53 PM 19.0 °F 5.6 °F 10.9 °F 71% 30.32 in 10.0 mi SW 13.8 mph - N/A   Clear
11:53 PM 17.1 °F 5.0 °F 10.0 °F 74% 30.33 in 10.0 mi SSW 10.4 mph - N/A   Clear